Location: *
(51.0333°S, 178.4667°E)
Time: 02:43:52
(UTC+00:00)

Cosmos 2237 Rocket - Pass Details

Date: 15 November 2019
Orbit: 834 x 850 km, 71.0° (Epoch: 10 December)

Event Time Altitude Azimuth Distance (km) Brightness Sun altitude
Rises 09:38:53 0° 221° (SW) 3,426 7.2 -14.7°
Reaches altitude 10° 09:42:14 10° 241° (WSW) 2,485 5.6 -15.0°
Maximum altitude 09:45:38 16° 278° (W) 2,057 4.5 -15.3°
Drops below altitude 10° 09:49:02 10° 315° (NW) 2,472 4.5 -15.6°
Enters shadow 09:51:35 - 331° (NNW) 3,158 4.9 -15.8°
